Terminal Aerodrome Forecast
Issued by NWS Goodland, KS

Home | Current Version | Previous Version | Text Only | Print | Product List | Glossary On
Versions: 1 2 3 4 5 6 7 8 9 10 11 12 13 14 15 16 17 18 19 20 21 22
000
FTUS43 KGLD 181202 AAA
TAFGLD
TAF AMD
KGLD 181202Z 1812/1912 VRB03KT 1/4SM FZFG VV002
      TEMPO 1812/1815 3SM BR BKN005
     FM181500 25006KT 5SM BR BKN007
     FM182000 30006KT P6SM BKN035=

USA.gov is the U.S. government's official web portal to all federal, state and local government web resources and services.